GW2682 Weather Reports


time (UTC)temp
C
wind
direction
speed
KPH
gust
KPH
rain 1hr
cm
rain 24hr
cm
rain mn
cm
humidity
%
barometer
mb
20260510045030 8 218 6.4 9.7 0.00 1.09 0.00 94 1009.8
20260510044532 8 231 4.8 9.7 0.00 1.09 0.00 94 1009.9
20260510044019 8 285 3.2 8.0 0.00 1.09 0.00 94 1009.8
20260510043520 8 273 4.8 8.0 0.00 1.09 0.00 94 1009.7
20260510043031 8 246 3.2 6.4 0.00 1.09 0.00 94 1009.5
20260510042520 8 269 4.8 6.4 0.00 1.09 0.00 94 1009.3
20260510042019 8 262 3.2 6.4 0.00 1.09 0.00 94 1009.1
20260510041530 8 278 3.2 6.4 0.00 1.09 0.00 94 1009.1
20260510041020 8 276 1.6 8.0 0.00 1.09 0.00 94 1009.0
20260510040519 8 233 3.2 8.0 0.00 1.09 0.00 94 1009.0
20260510040020 8 214 3.2 8.0 0.00 1.09 0.00 94 1009.0
20260510035520 8 233 4.8 6.4 0.00 1.09 1.09 94 1009.2
20260510035019 8 229 3.2 9.7 0.00 1.09 1.09 93 1009.1
20260510034520 8 247 4.8 9.7 0.00 1.09 1.09 94 1009.1
20260510034020 8 200 3.2 9.7 0.00 1.09 1.09 94 1009.0
20260510033520 8 247 6.4 9.7 0.00 1.09 1.09 94 1009.0
20260510033021 8 233 4.8 11.3 0.00 1.09 1.09 93 1009.1
20260510032532 8 237 8.0 11.3 0.00 1.09 1.09 94 1009.0
20260510032020 8 220 6.4 11.3 0.00 1.09 1.09 94 1009.1
20260510031520 8 246 6.4 14.5 0.00 1.09 1.09 93 1009.0
20260510031019 8 229 6.4 14.5 0.00 1.09 1.09 93 1009.1
20260510030520 8 238 6.4 14.5 0.00 1.09 1.09 93 1009.0
20260510030020 8 221 6.4 14.5 0.00 1.09 1.09 93 1008.9
20260510025520 9 254 3.2 8.0 0.00 1.09 1.09 93 1009.0
20260510025020 9 240 3.2 6.4 0.00 1.09 1.09 93 1009.0
20260510024520 9 245 3.2 11.3 0.00 1.09 1.09 92 1009.1
20260510024031 9 243 3.2 12.9 0.00 1.09 1.09 92 1008.9
20260510023020 9 232 6.4 12.9 0.00 1.09 1.09 93 1009.0
20260510022520 9 232 8.0 11.3 0.00 1.09 1.09 93 1008.9
20260510022021 9 242 6.4 11.3 0.00 1.09 1.09 93 1009.0
20260510021521 9 234 4.8 11.3 0.00 1.09 1.09 93 1009.0
20260510021021 9 205 4.8 8.0 0.00 1.09 1.09 93 1009.0
20260510020532 9 260 4.8 8.0 0.00 1.09 1.09 93 1009.0
20260510020020 9 229 3.2 11.3 0.00 1.09 1.09 93 1009.2
20260510015532 9 205 3.2 11.3 0.00 1.09 1.09 93 1009.1
20260510015031 9 231 4.8 9.7 0.00 1.09 1.09 92 1009.0
20260510014532 9 220 4.8 8.0 0.00 1.09 1.09 92 1009.1
20260510014032 9 221 3.2 8.0 0.00 1.09 1.09 92 1008.9
20260510013520 9 255 3.2 6.4 0.00 1.09 1.09 92 1008.8
20260510013013 9 247 3.2 6.4 0.00 1.09 1.09 92 1008.8
20260510012512 9 212 0.0 1.6 0.00 1.09 1.09 91 1008.9
20260510012013 9 233 0.0 3.2 0.00 1.09 1.09 91 1008.8
20260510011513 9 246 1.6 3.2 0.00 1.09 1.09 91 1009.0
20260510011024 9 233 1.6 3.2 0.00 1.09 1.09 90 1008.9
20260510010512 9 221 1.6 1.6 0.00 1.09 1.09 91 1008.9
20260510010013 9 221 0.0 1.6 0.00 1.09 1.09 91 1008.6
20260510005512 9 221 0.0 0.0 0.00 1.09 1.09 90 1008.5
20260510005012 9 221 0.0 1.6 0.00 1.09 1.09 89 1008.6
20260510004512 10 221 0.0 1.6 0.00 1.09 1.09 89 1008.6
20260510004012 10 221 1.6 6.4 0.00 1.09 1.09 88 1008.7
20260510003512 10 222 3.2 11.3 0.00 1.09 1.09 87 1008.8
20260510003012 10 221 4.8 11.3 0.00 1.09 1.09 87 1008.7
20260510002512 10 249 4.8 11.3 0.00 1.09 1.09 87 1008.7
20260510002023 10 244 6.4 11.3 0.00 1.09 1.09 87 1008.6
20260510001512 10 252 4.8 9.7 0.00 1.09 1.09 87 1008.6
20260510001012 11 253 4.8 9.7 0.00 1.09 1.09 86 1008.5
20260510000513 11 236 3.2 8.0 0.00 1.09 1.09 86 1008.2
20260510000013 11 243 3.2 9.7 0.00 1.09 1.09 85 1008.2
20260509235524 11 217 4.8 11.3 0.00 1.09 1.09 85 1008.2
20260509235013 11 229 6.4 9.7 0.00 1.09 1.09 84 1008.1
20260509234513 11 255 3.2 6.4 0.00 1.09 1.09 83 1007.9
20260509234014 11 243 1.6 6.4 0.00 1.09 1.09 83 1008.0
20260509233513 12 236 3.2 11.3 0.00 1.09 1.09 82 1008.1
20260509233012 12 232 6.4 17.7 0.00 1.09 1.09 81 1007.9
20260509232535 12 231 6.4 17.7 0.00 1.09 1.09 80 1007.8
20260509232013 12 252 6.4 12.9 0.00 1.09 1.09 81 1007.8
20260509231513 12 255 6.4 12.9 0.00 1.09 1.09 81 1007.7
20260509231014 12 248 9.7 19.3 0.00 1.09 1.09 81 1007.6
20260509230513 12 262 8.0 14.5 0.00 1.09 1.09 82 1007.5
20260509230013 12 230 4.8 12.9 0.00 1.09 1.09 82 1007.5
20260509225524 12 240 6.4 17.7 0.00 1.09 1.09 82 1007.5
20260509225013 12 255 12.9 17.7 0.00 1.09 1.09 82 1007.6
20260509224512 12 230 9.7 22.5 0.00 1.09 1.09 83 1007.7
20260509224036 12 224 8.0 22.5 0.00 1.09 1.09 84 1007.7
20260509223513 12 219 9.7 17.7 0.00 1.09 1.09 85 1007.7
20260509223013 12 225 9.7 16.1 0.00 1.09 1.09 85 1007.6
20260509222513 12 223 8.0 14.5 0.00 1.09 1.09 86 1007.7
20260509222013 12 224 6.4 14.5 0.00 1.09 1.09 86 1007.7
20260509221524 12 205 9.7 16.1 0.00 1.09 1.09 86 1007.9
20260509221035 12 219 6.4 16.1 0.00 1.09 1.09 88 1007.9
20260509220513 11 239 9.7 19.3 0.00 1.09 1.09 89 1007.8
20260509220013 11 219 11.3 19.3 0.00 1.09 1.09 89 1008.0
20260509215513 11 211 6.4 12.9 0.00 1.09 1.09 90 1008.1
20260509215013 11 237 8.0 17.7 0.00 1.09 1.09 90 1008.1
20260509214513 11 240 9.7 17.7 0.00 1.09 1.09 90 1008.2
20260509214014 10 207 9.7 20.9 0.00 1.09 1.09 90 1008.2
20260509213514 10 243 8.0 20.9 0.00 1.09 1.09 90 1008.2
20260509213013 10 269 11.3 32.2 0.00 1.09 1.09 90 1008.2
20260509212524 10 252 12.9 32.2 0.00 1.09 1.09 90 1008.3
20260509212015 10 260 12.9 25.7 0.03 1.09 1.09 90 1008.3
20260509211525 10 213 9.7 29.0 0.03 1.09 1.09 90 1008.4
20260509211035 10 228 12.9 27.4 0.03 1.09 1.09 90 1008.3
20260509210514 10 236 14.5 22.5 0.03 1.09 1.09 90 1008.4
20260509210015 10 217 14.5 22.5 0.03 1.09 1.09 90 1008.3
20260509205524 10 232 12.9 22.5 0.03 1.09 1.09 91 1008.3
20260509205014 10 226 12.9 22.5 0.05 1.09 1.09 91 1008.3
20260509204513 10 233 11.3 24.1 0.08 1.09 1.09 91 1008.3
20260509204024 10 236 11.3 19.3 0.10 1.09 1.09 91 1008.3
20260509203513 10 225 6.4 12.9 0.13 1.09 1.09 92 1008.2
20260509203013 10 225 4.8 11.3 0.13 1.09 1.09 92 1008.3
20260509202513 10 248 8.0 19.3 0.15 1.09 1.09 91 1008.2
20260509202014 10 243 8.0 19.3 0.13 1.07 1.07 91 1008.3
20260509201514 10 256 11.3 19.3 0.15 1.07 1.07 91 1008.4
20260509201036 10 230 11.3 19.3 0.15 1.07 1.07 91 1008.4
20260509200548 9 259 8.0 19.3 0.18 1.07 1.07 91 1008.5
20260509200014 9 264 11.3 20.9 0.18 1.07 1.07 91 1008.6
20260509195514 9 212 9.7 25.7 0.20 1.07 1.07 92 1008.7
20260509195014 9 231 9.7 20.9 0.20 1.04 1.04 92 1008.7
20260509194515 10 230 12.9 24.1 0.18 1.02 1.02 92 1009.0
20260509194014 10 245 14.5 24.1 0.18 0.99 0.99 92 1008.9
20260509193514 10 186 12.9 30.6 0.18 0.97 0.97 92 1009.0
20260509193014 10 195 14.5 30.6 0.20 0.97 0.97 92 1009.1
20260509192526 10 266 11.3 24.1 0.18 0.94 0.94 92 1009.2
20260509192014 10 236 14.5 24.1 0.20 0.94 0.94 92 1009.1
20260509191515 10 226 12.9 22.5 0.20 0.91 0.91 92 1009.1
20260509191015 9 231 12.9 20.9 0.23 0.91 0.91 92 1009.2
20260509190515 9 218 9.7 20.9 0.23 0.89 0.89 92 1009.1
20260509190015 9 223 11.3 20.9 0.25 0.89 0.89 92 1009.3
20260509185515 9 232 9.7 20.9 0.25 0.86 0.86 93 1009.3
20260509185015 9 242 12.9 22.5 0.25 0.84 0.84 92 1009.3
20260509184548 9 278 12.9 22.5 0.28 0.84 0.84 92 1009.4
20260509184015 9 216 12.9 22.5 0.25 0.81 0.81 92 1009.5
20260509183515 9 257 12.9 22.5 0.23 0.79 0.79 92 1009.5
20260509183027 9 231 12.9 20.9 0.23 0.76 0.76 92 1009.5
20260509182515 9 240 11.3 22.5 0.25 0.76 0.76 92 1009.5
20260509182015 9 231 11.3 22.5 0.23 0.74 0.74 92 1009.5
20260509181515 9 222 12.9 22.5 0.20 0.71 0.71 92 1009.5
20260509181015 9 233 9.7 22.5 0.18 0.69 0.69 92 1009.5
20260509180515 9 236 12.9 22.5 0.18 0.66 0.66 92 1009.5
20260509180027 9 212 9.7 20.9 0.15 0.64 0.64 92 1009.4
20260509175515 10 236 11.3 20.9 0.13 0.74 0.61 92 1009.4
20260509175016 10 150 11.3 20.9 0.10 0.71 0.58 92 1009.4
20260509174516 10 225 11.3 17.7 0.08 0.69 0.56 92 1009.5
20260509174015 10 249 9.7 22.5 0.08 0.69 0.56 92 1009.2
20260509173516 10 210 11.3 22.5 0.10 0.69 0.56 92 1009.2
20260509173016 10 234 11.3 22.5 0.08 0.66 0.53 92 1009.3
20260509172515 10 236 8.0 22.5 0.08 0.64 0.51 92 1009.3
20260509172015 10 224 11.3 22.5 0.08 0.64 0.51 92 1009.3
20260509171516 10 229 9.7 17.7 0.08 0.64 0.51 92 1009.2
20260509171016 10 200 11.3 22.5 0.10 0.64 0.51 92 1009.2
20260509170516 10 211 16.1 29.0 0.08 0.61 0.48 91 1009.2
20260509170016 10 259 12.9 32.2 0.08 0.61 0.48 91 1009.3
20260509165515 10 230 9.7 27.4 0.08 0.61 0.48 92 1009.3
20260509165016 10 231 12.9 27.4 0.10 0.61 0.48 91 1009.3
20260509164515 10 232 11.3 22.5 0.10 0.61 0.48 91 1009.3
20260509164015 10 225 14.5 22.5 0.10 0.61 0.48 91 1009.3
20260509163527 10 219 9.7 22.5 0.08 0.58 0.46 91 1009.3
20260509163015 10 174 11.3 22.5 0.08 0.58 0.46 91 1009.3
20260509162516 10 259 9.7 17.7 0.05 0.56 0.43 91 1009.4
20260509162017 10 161 8.0 20.9 0.05 0.56 0.43 91 1009.3
20260509161517 10 220 11.3 20.9 0.08 0.56 0.43 91 1009.5
20260509161038 10 224 11.3 22.5 0.05 0.53 0.41 91 1009.5
20260509160515 10 174 9.7 22.5 0.05 0.53 0.41 91 1009.5
20260509160027 10 242 11.3 17.7 0.05 0.53 0.41 91 1009.7
20260509155526 10 233 8.0 17.7 0.05 0.53 0.41 91 1009.7
20260509155016 10 217 8.0 17.7 0.03 0.51 0.38 92 1009.6
20260509154516 10 186 1.6 12.9 0.03 0.51 0.38 92 1009.7
20260509154015 10 196 3.2 12.9 0.05 0.51 0.38 91 1009.6
20260509153528 10 231 4.8 9.7 0.05 0.51 0.38 91 1009.7
20260509153017 10 238 6.4 9.7 0.05 0.51 0.38 92 1009.8
20260509152516 10 237 4.8 8.0 0.05 0.51 0.38 92 1009.9
20260509152016 9 212 3.2 8.0 0.08 0.51 0.38 92 1009.7
20260509151527 9 142 3.2 9.7 0.05 0.48 0.36 92 1009.6
20260509151016 9 166 1.6 11.3 0.05 0.48 0.36 92 1009.6
20260509150527 9 156 4.8 11.3 0.05 0.48 0.36 93 1009.8
20260509150016 9 99 3.2 11.3 0.05 0.48 0.36 93 1010.1
20260509145538 9 231 4.8 14.5 0.05 0.48 0.36 93 1010.4
20260509145016 9 166 6.4 14.5 0.08 0.48 0.36 93 1010.4
20260509144516 9 148 8.0 14.5 0.05 0.46 0.33 93 1010.4
20260509144038 9 241 4.8 8.0 0.05 0.46 0.33 93 1010.4
20260509143527 9 200 3.2 6.4 0.05 0.46 0.33 93 1010.4
20260509143016 9 214 3.2 6.4 0.08 0.46 0.33 92 1010.2
20260509142516 9 219 0.0 3.2 0.08 0.46 0.33 93 1010.0
20260509142027 8 70 0.0 3.2 0.05 0.43 0.30 93 1010.0
20260509141516 8 138 0.0 9.7 0.05 0.43 0.30 92 1010.2
20260509141016 8 178 3.2 8.0 0.05 0.43 0.30 93 1010.1
20260509140527 8 136 1.6 6.4 0.08 0.43 0.30 93 1010.1
20260509140016 8 158 1.6 6.4 0.08 0.43 0.30 93 1010.0
20260509135528 8 220 1.6 4.8 0.08 0.43 0.30 93 1010.1
20260509135016 8 219 0.0 4.8 0.05 0.41 0.28 94 1010.0
20260509134516 8 191 1.6 4.8 0.08 0.41 0.28 95 1010.1
20260509134016 8 161 0.0 3.2 0.08 0.41 0.28 95 1010.0
20260509133516 8 77 0.0 3.2 0.08 0.41 0.28 95 1010.0
20260509133039 8 70 0.0 3.2 0.05 0.38 0.25 95 1010.0
20260509132516 8 68 0.0 3.2 0.05 0.38 0.25 95 1010.0
20260509132016 8 70 0.0 3.2 0.05 0.38 0.25 95 1009.9
20260509131527 8 70 1.6 4.8 0.05 0.38 0.25 95 1010.0
20260509131017 8 10 3.2 4.8 0.08 0.38 0.25 95 1009.9
20260509130527 8 30 1.6 3.2 0.05 0.36 0.23 95 1010.0
20260509130017 8 37 0.0 1.6 0.05 0.36 0.23 95 1010.1
20260509125517 8 58 0.0 6.4 0.05 0.36 0.23 95 1010.1
20260509125016 8 58 3.2 6.4 0.05 0.36 0.23 95 1009.9
20260509124518 8 56 0.0 3.2 0.03 0.33 0.20 95 1010.1
20260509124016 7 56 1.6 3.2 0.03 0.33 0.20 95 1009.9
20260509123516 7 49 1.6 3.2 0.03 0.33 0.20 95 1009.9
20260509123029 7 33 1.6 3.2 0.03 0.33 0.20 95 1010.0
20260509122516 7 33 0.0 3.2 0.03 0.33 0.20 95 1009.9
20260509122016 7 51 1.6 3.2 0.03 0.33 0.20 95 1010.0
20260509121517 7 55 1.6 1.6 0.00 0.30 0.18 95 1010.0
20260509121017 7 54 1.6 1.6 0.00 0.30 0.18 95 1010.1
20260509120516 7 55 1.6 3.2 0.00 0.30 0.18 95 1010.0
20260509120017 7 52 1.6 3.2 0.00 0.30 0.18 95 1010.0
20260509115517 7 62 1.6 3.2 0.03 0.30 0.18 95 1010.0
20260509115017 7 70 1.6 3.2 0.03 0.30 0.18 95 1010.2
20260509114516 7 65 1.6 3.2 0.03 0.30 0.18 95 1010.2
20260509114016 7 66 0.0 3.2 0.03 0.30 0.18 95 1010.2
20260509113517 7 67 1.6 3.2 0.03 0.30 0.18 95 1010.1
20260509113017 7 130 0.0 3.2 0.03 0.30 0.18 95 1010.2
20260509112517 7 175 1.6 3.2 0.03 0.30 0.18 95 1010.2
20260509112017 7 103 1.6 4.8 0.03 0.30 0.18 95 1010.3
20260509111517 7 59 0.0 4.8 0.03 0.30 0.18 95 1010.2
20260509111028 7 74 0.0 4.8 0.03 0.30 0.18 95 1010.1
20260509110517 7 76 3.2 4.8 0.03 0.30 0.18 95 1010.0
20260509110017 7 326 0.0 6.4 0.03 0.30 0.18 95 1010.2
20260509105517 7 38 4.8 6.4 0.00 0.28 0.15 95 1010.2
20260509105017 7 8 1.6 9.7 0.00 0.28 0.15 95 1010.1
20260509104518 7 60 4.8 9.7 0.00 0.28 0.15 95 1010.0
20260509104016 7 39 3.2 4.8 0.00 0.28 0.15 95 1010.2
20260509103517 7 24 1.6 3.2 0.00 0.28 0.15 95 1010.1
20260509103017 7 24 1.6 3.2 0.00 0.28 0.15 95 1010.2
20260509102517 7 24 0.0 1.6 0.00 0.28 0.15 94 1010.3
20260509102017 7 24 0.0 1.6 0.00 0.28 0.15 94 1010.3
20260509101517 7 24 0.0 1.6 0.00 0.28 0.15 94 1010.2
20260509101028 7 24 0.0 1.6 0.00 0.28 0.15 94 1010.2
20260509100517 7 24 0.0 1.6 0.00 0.28 0.15 94 1010.2
20260509100018 7 24 0.0 1.6 0.00 0.28 0.15 94 1010.0
20260509095517 7 24 0.0 3.2 0.00 0.30 0.15 94 1010.1
20260509095017 7 31 1.6 3.2 0.00 0.30 0.15 94 1010.0
20260509094528 7 31 1.6 3.2 0.00 0.30 0.15 93 1010.0
20260509094017 7 158 0.0 1.6 0.00 0.30 0.15 93 1009.9
20260509093518 7 158 0.0 1.6 0.00 0.30 0.15 93 1010.0
20260509093017 7 158 0.0 1.6 0.00 0.30 0.15 93 1010.1
20260509092530 7 158 0.0 3.2 0.00 0.30 0.15 93 1010.2
20260509092018 7 169 0.0 4.8 0.00 0.30 0.15 93 1010.2
20260509091530 7 120 1.6 4.8 0.00 0.30 0.15 93 1010.2
20260509091018 7 136 0.0 1.6 0.00 0.30 0.15 93 1010.2
20260509090518 7 222 0.0 1.6 0.00 0.30 0.15 93 1010.4
20260509090030 7 245 0.0 3.2 0.00 0.30 0.15 93 1010.5
20260509085518 7 247 0.0 3.2 0.00 0.30 0.15 93 1010.6
20260509085030 7 227 1.6 4.8 0.00 0.30 0.15 93 1010.7
20260509084519 7 236 1.6 4.8 0.00 0.30 0.15 93 1010.7
20260509084018 7 235 3.2 4.8 0.00 0.30 0.15 93 1010.7
20260509083530 7 229 1.6 6.4 0.00 0.30 0.15 93 1010.7
20260509083019 7 214 4.8 6.4 0.00 0.30 0.15 94 1010.7
20260509082519 7 250 1.6 3.2 0.00 0.30 0.15 94 1010.7
20260509082019 7 173 1.6 4.8 0.00 0.30 0.15 94 1010.7
20260509081519 7 227 3.2 4.8 0.00 0.30 0.15 94 1010.7
20260509081018 7 241 1.6 4.8 0.00 0.30 0.15 94 1010.5
20260509080520 7 242 3.2 4.8 0.00 0.30 0.15 95 1010.5
20260509080018 7 226 0.0 6.4 0.00 0.30 0.15 95 1010.6
20260509075518 7 226 1.6 3.2 0.00 0.30 0.15 94 1010.7
20260509075018 7 218 0.0 1.6 0.00 0.30 0.15 94 1010.7
20260509074518 7 218 0.0 3.2 0.00 0.30 0.15 94 1010.7
20260509074030 7 232 1.6 3.2 0.00 0.30 0.15 94 1010.6
20260509073518 7 207 1.6 1.6 0.00 0.30 0.15 94 1010.6
20260509073019 7 214 0.0 1.6 0.00 0.30 0.15 94 1010.5
20260509072530 7 214 1.6 3.2 0.00 0.30 0.15 94 1010.6
20260509072029 7 214 1.6 3.2 0.03 0.30 0.15 94 1010.5
20260509071519 7 259 0.0 1.6 0.03 0.30 0.15 94 1010.3
20260509071021 7 258 0.0 1.6 0.03 0.30 0.15 93 1010.4
20260509070518 7 258 0.0 1.6 0.05 0.30 0.15 93 1010.4
20260509070019 7 259 0.0 1.6 0.08 0.30 0.15 93 1010.5
20260509065519 7 259 0.0 1.6 0.10 0.30 0.15 93 1010.5
20260509065019 7 259 0.0 1.6 0.10 0.30 0.15 93 1010.6
20260509064518 7 258 1.6 6.4 0.10 0.30 0.15 93 1010.9
20260509064019 7 258 1.6 6.4 0.10 0.30 0.15 92 1010.9
20260509063519 7 267 1.6 6.4 0.10 0.30 0.15 92 1011.1
20260509063041 7 231 4.8 8.0 0.13 0.30 0.15 92 1011.3
20260509062519 7 257 3.2 4.8 0.13 0.30 0.15 92 1011.3
20260509062019 7 214 1.6 4.8 0.10 0.28 0.13 92 1011.5
20260509061530 7 247 1.6 6.4 0.10 0.28 0.13 92 1011.5
20260509061019 7 248 3.2 6.4 0.08 0.25 0.10 92 1011.6
20260509060519 7 222 3.2 6.4 0.08 0.25 0.10 91 1011.6
20260509060021 7 238 3.2 6.4 0.05 0.23 0.08 91 1011.6
20260509055519 7 237 4.8 9.7 0.03 0.33 0.05 91 1011.5
20260509055019 7 214 6.4 12.9 0.05 0.33 0.05 92 1011.5
20260509054519 7 233 6.4 12.9 0.05 0.33 0.05 92 1011.3
20260509054019 7 199 3.2 4.8 0.05 0.33 0.05 92 1011.1
20260509053519 7 223 0.0 0.0 0.05 0.33 0.05 91 1010.7
20260509053019 7 223 0.0 1.6 0.03 0.30 0.03 91 1010.7
20260509052519 7 223 0.0 1.6 0.03 0.30 0.03 90 1010.6
20260509052019 7 223 0.0 4.8 0.03 0.30 0.03 89 1010.9
20260509051520 7 223 3.2 4.8 0.03 0.30 0.03 89 1011.2
20260509051019 7 234 4.8 4.8 0.03 0.30 0.03 89 1011.2
20260509050519 7 233 1.6 3.2 0.03 0.30 0.03 89 1011.1
20260509050020 7 236 0.0 4.8 0.03 0.30 0.03 88 1011.0
20260509045519 8 217 3.2 4.8 0.03 0.36 0.03 87 1011.0